Regional Weather Roundup
Issued by NWS

Home | Current Version | Previous Version | Graphics & Text | Print | Product List | Glossary On
Versions: 1 2 3 4 5 6 7 8 9 10 11 12 13 14 15 16 17 18 19 20 21 22 23 24 25 26 27 28 29 30 31 32 33 34 35 36 37 38 39 40 41 42 43 44 45 46 47 48 49 50
000
ASUS43 KMPX 230910
RWRMN
WEATHER ROUNDUP FOR MINNESOTA
NATIONAL WEATHER SERVICE TWIN CITIES/CHANHASSEN MN
400 AM CDT WED APR 23 2014


NOTE: "FAIR" INDICATES FEW OR NO CLOUDS BELOW 12,000 FEET WITH NO
SIGNIFICANT WEATHER AND/OR OBSTRUCTIONS TO VISIBILITY. N/A MEANS
CURRENT SKY AND/OR WEATHER CONDITIONS ARE NOT AVAILABLE.

MNZ060>063-068>070-231000-
   Twin Cities Metro

CITY           SKY/WX    TMP DP  RH WIND       PRES   REMARKS
TWIN CITIES    CLOUDY    43  26  51 SE10      30.09S
ST PAUL        MOCLDY    43  26  51 SE8       30.10S
CRYSTAL        CLOUDY    45  25  45 E7        30.07S
BLAINE         MOCLDY    45  28  53 SE6       30.09R
EDEN PRAIRIE   CLOUDY    46  25  43 E10       30.06S
LAKEVILLE      CLOUDY    36  27  69 CALM      30.08S
SOUTH ST PAUL  CLOUDY    46  26  47 SE6       30.10R
LAKE ELMO      FAIR      41  28  60 SE8       30.10F
$$
MNZ001>005-007-008-013>017-022>024-027-028-231000-
   Northwest Minnesota

CITY           SKY/WX    TMP DP  RH WIND       PRES   REMARKS
BEMIDJI        PTCLDY    32  20  61 E6        30.02F WCI  27
HALLOCK        CLOUDY    37  27  65 E12       29.97S
ROSEAU         CLEAR     39  25  56 SE12      30.02S
WARROAD        CLEAR     32  25  74 E6        30.04S WCI  26
THIEF RVR FALL PTCLDY    39  23  52 E12       29.98F
CROOKSTON      MOCLDY    39  28  65 SE10      29.97F
FOSSTON        MOCLDY    37  21  52 SE10      29.99F
DETROIT LAKES  CLOUDY    43  28  56 SE12      29.99S
MOORHEAD       CLOUDY    46  32  57 SE13      29.96S
PARK RAPIDS    MOCLDY    38  23  55 E6        30.01F
$$
MNZ006-009>011-018-025>026-231000-
   North Central Minnesota

CITY           SKY/WX    TMP DP  RH WIND       PRES   REMARKS
BAUDETTE       CLEAR     33  22  63 SE6       30.06S WCI  28
FLAG ISLAND    CLEAR     36  21  55 CALM      30.05S
INTL FALLS     CLEAR     26  22  84 CALM      30.09R
WASKISH        CLEAR     34  23  64 E6        30.05F WCI  29
BIG FORK       CLEAR     27  21  80 CALM      30.08S
LONGVILLE      PTCLDY    25  23  93 CALM      30.05S
GRAND RAPIDS   CLEAR     36  18  48 SE6       30.07S
CRANE LAKE     CLEAR     19  16  86 CALM      30.13S
ORR            CLEAR     27  21  80 CALM      30.07S
COOK           CLEAR     25  21  86 CALM      30.10S
$$
MNZ012-019>021-037-231000-
   Northeast Minnesota

CITY           SKY/WX    TMP DP  RH WIND       PRES   REMARKS
DULUTH         CLEAR     33  23  66 SE6       30.10S WCI  28
ELY            CLEAR     21  19  93 CALM      30.11S
HIBBING        CLEAR     24  20  84 NW3       30.09S
EVELETH        CLEAR     23  23 100 CALM      30.10F
DULUTH HARBOR  CLEAR     30  27  86 CALM      30.14S
TWO HARBORS    CLEAR     25  19  80 CALM      30.10S
SILVER BAY     CLEAR     23  23 100 CALM      30.11S
GRAND MARAIS     N/A     29  24  82 CALM      30.15R
G MARAIS ARPRT CLEAR     21  18  86 CALM      30.12R
$$
MNZ029>031-032-039>041-046>048-054>057-064-231000-
   West Central Minnesota

CITY           SKY/WX    TMP DP  RH WIND       PRES   REMARKS
FERGUS FALLS   CLOUDY    46  25  42 SE17      29.95R
WHEATON        LGT RAIN  46  39  76 SE17      29.97S
MORRIS         LGT RAIN  45  34  65 SE16      29.98S
ALEXANDRIA     CLOUDY    44  26  49 SE14G21   30.01S
ELBOW LAKE     MOCLDY    46  29  52 SE14      29.98R
WADENA         CLOUDY    39  27  60 SE7       30.00F
GLENWOOD       CLOUDY    43  28  56 SE9       30.01F
APPLETON       LGT RAIN  46  36  66 SE13      29.97F
BENSON         LGT RAIN  46  30  53 S16G22    30.00S
ORTONVILLE     RAIN      45  37  76 SE16      29.95F
MADISON        CLOUDY    48  39  71 SE17G23   29.95F
WILLMAR        LGT RAIN  45  30  57 SE14      30.04S
$$
MNZ033>034-036-042>043-049>051-058-059-231000-
   Central Minnesota

CITY           SKY/WX    TMP DP  RH WIND       PRES   REMARKS
ST CLOUD       CLOUDY    44  24  45 SE6       30.05F
SAUK CENTRE    FAIR      43  26  51 SE8       30.03S
PAYNESVILLE    CLOUDY    44  26  48 SE7       30.04R
AITKIN         PTCLDY    28  23  80 CALM      30.05S
PINE RIVER     MOCLDY    36  25  64 SE3       30.08S
BRAINERD       MOCLDY    40  24  53 E3        30.05F
STAPLES        CLOUDY    39  23  52 SE3       30.02F
LONG PRAIRIE   FAIR      43  25  49 SE10      30.03S
LITTLE FALLS   CLOUDY    41  23  48 E7        30.04F
LITCHFIELD     CLOUDY    46  28  49 SE10      30.05R
BUFFALO        CLOUDY    44  26  49 E7        30.07S
MAPLE LAKE     CLOUDY    45  29  53 SE5       30.07S
$$
MNZ037-044-045-052-053-231000-
   East Central Minnesota

CITY           SKY/WX    TMP DP  RH WIND       PRES   REMARKS
PRINCETON      CLOUDY    41  25  52 E6        30.08S
MORA           MOCLDY    32  28  86 CALM      30.10S
CAMBRIDGE      MOCLDY    43  28  56 SE6       30.07S
RUSH CITY      PTCLDY    36  23  60 SE3       30.10R
MOOSE LAKE     CLEAR     30  23  74 NE6       30.08S WCI  24
HINCKLEY       FAIR      32  28  86 CALM      30.10R
CLOQUET        CLEAR     34  21  60 CALM      30.10S
MCGREGOR       PTCLDY    34  27  75 E5        30.08S WCI  30
$$
MNZ071>073-080-081-089-090-097-098-231000-
   Southwest Minnesota

CITY           SKY/WX    TMP DP  RH WIND       PRES   REMARKS
MONTEVIDEO     LGT RAIN  45  37  76 S16       29.99F
GRANITE FALLS  LGT RAIN  46  34  61 E17       30.00F
CANBY          CLOUDY    47  38  70 SE12      29.96R
MARSHALL       CLOUDY    48  34  57 SE18      29.95F
REDWOOD FALLS  LGT RAIN  48  32  53 SE13      30.01F
OLIVIA         LGT RAIN  46  34  61 SE10      30.02S
PIPESTONE      CLOUDY    52  34  50 SE16G22   29.92S
WINDOM         CLOUDY    48  34  57 E13       29.99F
WORTHINGTON    CLOUDY    48  30  49 SE18      29.98F
JACKSON        CLOUDY    48  32  53 SE14      30.00F
TRACY          CLOUDY    50  34  54 SE14      29.98F
SLAYTON        CLOUDY    49  32  53 SE16      29.96F
$$
MNZ065>067-074>077-082>085-091>093-231000-
   South Central Minnesota

CITY           SKY/WX    TMP DP  RH WIND       PRES   REMARKS
MANKATO        CLOUDY    45  27  49 SE12      30.06S
NEW ULM        DRIZZLE   46  30  53 SE12      30.04S
ST JAMES       DRIZZLE   48  34  57 E12       30.04F
FAIRMONT       CLOUDY    46  34  61 SE13      30.04F
GLENCOE        CLOUDY    43  29  58 E7        30.05S
FARIBAULT      CLOUDY    46  21  36 SE14      30.08R
OWATONNA       CLOUDY    45  27  49 SE13      30.07S
WASECA         CLOUDY    41  27  56 E10       30.08S
ALBERT LEA     CLOUDY    45  28  53 SE10      30.06F
$$
MNZ078>079-086>088-094>096-231000-
   Southeast Minnesota

CITY           SKY/WX    TMP DP  RH WIND       PRES   REMARKS
ROCHESTER      CLOUDY    39  27  62 SE9       30.09R
RED WING       PTCLDY    43  27  52 E6        30.10S
STANTON        CLOUDY    45  25  45 SE8       30.07S
DODGE CENTER   CLOUDY    43  28  56 SE9       30.09R
WINONA         CLEAR     37  30  75 SE5       30.12S
AUSTIN         CLOUDY    43  30  61 E7        30.08R
PRESTON        MOCLDY    41  27  58 SE7       30.10R
$$
ABBREVIATIONS USED IN REMARKS
   TC - TEMPERATURES IN CELSIUS
  WCI - WIND CHILL INDEX
   HX - HEAT INDEX
  VSB - VISIBILITY
$$


USA.gov is the U.S. government's official web portal to all federal, state and local government web resources and services.